Volver al catálogo

FENGYUN 1C DEB

ActivoSSO
NORAD 29843·DEBRIS·🇨🇳 China

Lanzado May 10, 1999 desde Taiyuan Satellite Launch Center

Loading…

Próximos Pases (próximas 24 horas)

TLE

ActualizadoSource: Space-Track

Época: Sep 14, 2026, 01:45 UTC

1 29843U 99025EM  26257.07330166  .00000513  00000-0  18411-3 0  9996
2 29843  99.0141 110.2297 0190922 212.8003 302.2166 14.28961001 22032

Sigue FENGYUN 1C DEB en tiempo real con AllMySat

Download on the App Store